Location: Oshawa
(43.9000°N, 78.8670°W)
Time: 13:12:19
(UTC-04:00)

Cosmos 1500 - Visible Passes

Search period start: 03 August 2015 00:00
Search period end: 13 August 2015 00:00
Orbit: 510 x 531 km, 82.5° (Epoch: 03 August)

Date Brightness Start Highest point End Pass type
(mag) Time Alt. Az. Time Alt. Az. Time Alt. Az.
03 Aug 5.3 00:15:34 20° NE 00:15:34 20° NE 00:17:13 10° NNE visible
03 Aug 5.6 01:50:41 18° NW 01:50:41 18° NW 01:52:33 10° NNW visible
04 Aug 5.4 00:02:08 18° NE 00:02:08 18° NE 00:03:36 10° NNE visible
04 Aug 5.5 01:37:15 20° NW 01:37:15 20° NW 01:39:14 10° NNW visible
04 Aug 5.5 23:48:42 16° NE 23:48:42 16° NE 23:49:56 10° NE visible
05 Aug 5.4 01:23:48 22° NW 01:23:48 22° NW 01:25:52 10° NNW visible
05 Aug 5.6 23:35:14 15° NE 23:35:14 15° NE 23:36:15 10° NE visible
06 Aug 5.3 01:10:20 24° NW 01:10:20 24° NW 01:12:29 10° NNW visible
06 Aug 5.7 23:21:46 13° NE 23:21:46 13° NE 23:22:31 10° NE visible
07 Aug 5.2 00:56:52 26° NW 00:56:52 26° NW 00:59:05 10° N visible
07 Aug 5.8 23:08:17 11° ENE 23:08:17 11° ENE 23:08:42 10° NE visible
08 Aug 5.2 00:43:23 28° NNW 00:43:23 28° NNW 00:45:39 10° N visible
08 Aug 5.8 22:54:46 10° ENE 22:54:46 10° ENE 22:54:47 10° ENE visible
09 Aug 5.0 00:29:52 30° NNW 00:29:52 30° NNW 00:32:11 10° N visible
10 Aug 4.9 00:16:21 33° NNW 00:16:21 33° NNW 00:18:43 10° N visible
11 Aug 4.8 00:02:48 35° N 00:02:48 35° N 00:05:13 10° N visible
11 Aug 4.6 23:49:14 37° N 23:49:14 37° N 23:51:43 10° N visible
12 Aug 4.5 23:35:39 38° N 23:35:39 38° N 23:38:11 10° N visible
